CW0508 Weather Reports


time (UTC)temp
C
wind
direction
speed
KPH
gust
KPH
rain 1hr
cm
rain 24hr
cm
rain mn
cm
humidity
%
barometer
mb
20260901090218 18 232 0.0 0.0 0.05 0.08 0.08 88 1020.0
20260901085218 18 230 0.0 0.0 0.03 0.05 0.05 87 1020.1
20260901084218 18 231 0.0 0.0 0.00 0.03 0.03 87 1020.1
20260901083218 18 231 0.0 0.0 0.03 0.03 0.03 87 1020.0
20260901082218 18 231 0.0 0.0 0.03 0.03 0.03 87 1020.0
20260901081218 18 230 0.0 0.0 0.03 0.03 0.03 86 1019.9
20260901075218 18 233 0.0 0.0 0.03 0.03 0.03 86 1020.2
20260901074218 18 231 0.0 0.0 0.03 0.03 0.03 86 1020.2
20260901073219 18 231 0.0 0.0 0.00 0.00 0.00 85 1020.2
20260901072218 18 231 0.0 0.0 0.00 0.00 0.00 85 1020.4
20260901071218 18 231 0.0 0.0 0.00 0.00 0.00 84 1020.6
20260901065218 18 231 0.0 0.0 0.00 0.00 0.00 83 1020.7
20260901063218 19 231 0.0 0.0 0.00 0.00 0.00 83 1020.9
20260901062218 19 231 0.0 0.0 0.00 0.00 0.00 82 1020.9
20260901060218 19 230 0.0 0.0 0.00 0.00 0.00 81 1020.8
20260901055218 19 231 0.0 0.0 0.00 0.00 0.00 81 1020.9
20260901054218 19 231 0.0 0.0 0.00 0.00 0.00 81 1020.8
20260901053218 19 231 0.0 0.0 0.00 0.00 0.00 80 1020.8
20260901052218 19 231 0.0 0.0 0.00 0.00 0.00 80 1020.8
20260901050218 19 231 0.0 0.0 0.00 0.00 0.00 80 1020.9
20260901045218 19 231 0.0 0.0 0.00 0.00 0.00 80 1020.9
20260901044218 19 231 0.0 0.0 0.00 0.00 0.00 80 1020.9
20260901043218 19 231 0.0 0.0 0.00 0.00 0.00 80 1020.9
20260901042218 19 232 0.0 0.0 0.00 0.00 0.00 80 1020.8
20260901033219 20 231 0.0 0.0 0.00 0.00 0.00 80 1020.9
20260901030218 20 231 0.0 0.0 0.00 0.00 0.00 79 1021.1
20260901025218 20 232 0.0 0.0 0.00 0.00 0.00 79 1021.1
20260901024218 20 232 0.0 0.0 0.00 0.00 0.00 78 1021.0
20260901023218 20 232 0.0 0.0 0.00 0.00 0.00 78 1020.9
20260901022218 20 230 0.0 0.0 0.00 0.00 0.00 78 1021.0
20260901020218 20 232 0.0 0.0 0.00 0.00 0.00 77 1020.8
20260901015218 20 231 0.0 0.0 0.00 0.00 0.00 77 1020.6
20260901014218 20 232 0.0 0.0 0.00 0.00 0.00 77 1020.8
20260901013218 20 232 0.0 0.0 0.00 0.00 0.00 76 1020.9
20260901012218 21 231 0.0 0.0 0.00 0.00 0.00 75 1020.9
20260901011218 21 231 0.0 0.0 0.00 0.00 0.00 75 1021.0
20260901005218 21 232 0.0 0.0 0.00 0.00 0.00 74 1021.0
20260901004218 21 231 0.0 0.0 0.00 0.00 0.00 74 1020.8
20260901003218 21 231 0.0 0.0 0.00 0.00 0.00 73 1020.9
20260901002219 21 231 0.0 0.0 0.00 0.00 0.00 73 1020.7
20260901001218 21 230 0.0 0.0 0.00 0.00 0.00 72 1020.7
20260901000218 21 231 0.0 0.0 0.00 0.00 0.00 71 1020.6
20260831235218 21 231 0.0 0.0 0.00 0.00 0.00 71 1020.6
20260831234218 22 231 0.0 0.0 0.00 0.00 0.00 70 1020.6
20260831233218 22 232 0.0 0.0 0.00 0.00 0.00 69 1020.8
20260831232218 22 231 0.0 0.0 0.00 0.00 0.00 68 1021.0
20260831231218 22 231 0.0 0.0 0.00 0.00 0.00 68 1021.0
20260831230218 22 232 0.0 0.0 0.00 0.00 0.00 68 1021.3
20260831225218 22 231 0.0 0.0 0.00 0.00 0.00 67 1021.3
20260831224218 22 232 0.0 0.0 0.00 0.00 0.00 67 1021.4
20260831223218 23 231 0.0 0.0 0.00 0.00 0.00 65 1021.3
20260831221218 23 231 0.0 0.0 0.00 0.00 0.00 64 1021.4
20260831220218 23 233 0.0 0.0 0.00 0.00 0.00 64 1021.3
20260831215218 23 232 0.0 0.0 0.00 0.00 0.00 63 1021.3
20260831214218 23 232 0.0 0.0 0.00 0.00 0.00 63 1021.3
20260831213218 24 231 0.0 4.8 0.00 0.00 0.00 62 1021.3
20260831211218 24 238 0.0 8.0 0.00 0.00 0.00 61 1021.0
20260831210218 24 238 0.0 8.0 0.00 0.00 0.00 61 1021.2
20260831205218 24 208 0.0 9.7 0.00 0.00 0.00 62 1021.2
20260831203218 24 213 0.0 3.2 0.00 0.00 0.00 62 1021.2
20260831202218 24 212 0.0 1.6 0.00 0.00 0.00 61 1021.0
20260831201218 24 213 0.0 1.6 0.00 0.00 0.00 61 1021.2
20260831200218 24 213 1.6 1.6 0.00 0.00 0.00 60 1021.2
20260831195218 24 212 0.0 0.0 0.00 0.00 0.00 60 1021.3
20260831194218 24 212 0.0 3.2 0.00 0.00 0.00 60 1021.4
20260831193218 25 212 0.0 0.0 0.00 0.00 0.00 59 1021.3
20260831192218 25 213 0.0 1.6 0.00 0.00 0.00 58 1021.4
20260831191218 25 213 0.0 6.4 0.00 0.00 0.00 58 1021.6
20260831190218 25 213 0.0 6.4 0.00 0.00 0.00 58 1021.9
20260831185218 25 213 0.0 1.6 0.00 0.00 0.00 58 1022.0
20260831184218 25 213 0.0 3.2 0.00 0.00 0.00 57 1022.1
20260831183218 25 213 0.0 1.6 0.00 0.00 0.00 58 1022.1
20260831182218 25 214 1.6 4.8 0.00 0.00 0.00 57 1022.1
20260831173218 26 262 0.0 11.3 0.00 0.00 0.00 56 1022.4
20260831171218 26 242 0.0 6.4 0.00 0.00 0.00 55 1022.9
20260831165218 25 248 0.0 1.6 0.00 0.00 0.00 57 1023.1
20260831164218 25 248 0.0 4.8 0.00 0.00 0.00 58 1023.2
20260831163218 25 253 0.0 3.2 0.00 0.00 0.00 58 1023.5
20260831162218 25 254 0.0 4.8 0.00 0.00 0.00 58 1023.5
20260831161218 24 257 0.0 4.8 0.00 0.00 0.00 61 1023.4
20260831160218 23 263 0.0 4.8 0.00 0.00 0.00 60 1023.5
20260831155218 23 265 0.0 1.6 0.00 0.00 0.00 61 1023.7
20260831154218 22 268 0.0 1.6 0.00 0.00 0.00 63 1023.7
20260831153218 21 266 0.0 3.2 0.00 0.00 0.00 65 1023.6
20260831152218 21 272 0.0 3.2 0.00 0.00 0.00 66 1023.4
20260831151218 21 270 0.0 3.2 0.00 0.00 0.00 67 1023.6
20260831150218 20 263 0.0 0.0 0.00 0.00 0.00 70 1023.3
20260831145218 20 262 0.0 0.0 0.00 0.00 0.00 71 1023.2
20260831144218 19 262 0.0 0.0 0.00 0.00 0.00 71 1023.4
20260831143218 19 262 0.0 1.6 0.00 0.00 0.00 72 1023.3
20260831142218 18 264 0.0 1.6 0.00 0.00 0.00 73 1023.3
20260831141218 18 253 0.0 0.0 0.00 0.00 0.00 74 1023.5
20260831140218 17 253 0.0 0.0 0.00 0.00 0.00 74 1023.5
20260831134218 17 253 0.0 0.0 0.00 0.00 0.00 85 1023.8
20260831133218 17 252 0.0 0.0 0.00 0.00 0.00 87 1023.6
20260831132218 16 253 0.0 0.0 0.00 0.00 0.00 88 1023.6
20260831131218 16 253 0.0 0.0 0.00 0.00 0.00 90 1023.6
20260831130218 16 252 0.0 0.0 0.00 0.00 0.00 92 1023.5
20260831124218 15 253 0.0 0.0 0.00 0.00 0.00 93 1023.4
20260831123218 15 252 0.0 0.0 0.00 0.00 0.00 92 1023.6
20260831122218 14 252 0.0 0.0 0.00 0.00 0.00 92 1023.5
20260831121218 14 253 0.0 0.0 0.00 0.00 0.00 92 1023.3
20260831120218 13 252 0.0 0.0 0.00 0.00 0.00 91 1023.3
20260831115220 13 253 0.0 0.0 0.00 0.00 0.00 92 1023.3
20260831114217 13 252 0.0 0.0 0.00 0.00 0.00 89 1023.2
20260831113218 13 252 0.0 0.0 0.00 0.00 0.00 89 1023.0
20260831111218 13 253 0.0 0.0 0.00 0.00 0.00 88 1022.9
20260831110218 13 253 0.0 0.0 0.00 0.00 0.00 88 1022.7
20260831105218 13 252 0.0 0.0 0.00 0.00 0.00 87 1022.8
20260831104218 13 252 0.0 0.0 0.00 0.00 0.00 87 1022.6
20260831103218 13 253 0.0 0.0 0.00 0.00 0.00 87 1022.6
20260831102218 13 253 0.0 0.0 0.00 0.00 0.00 87 1022.4
20260831101218 13 253 0.0 0.0 0.00 0.00 0.00 87 1022.4
20260831100218 13 253 0.0 0.0 0.00 0.00 0.00 87 1022.6
20260831095218 13 253 0.0 0.0 0.00 0.00 0.00 87 1022.5
20260831094218 13 253 0.0 0.0 0.00 0.00 0.00 87 1022.3
20260831093218 14 253 0.0 0.0 0.00 0.00 0.00 87 1022.3